Location: Crocus Hill
(18.2167°N, 63.0667°W)
Time: 01:45:27
(UTC+00:00)

Alouette 2 Rocket - Pass Details

Date: 26 January 2020
Orbit: 502 x 2650 km, 79.8° (Epoch: 19 February)

Event Time Altitude Azimuth Distance (km) Brightness Sun altitude
Rises 10:11:20 0° 193° (SSW) 4,188 7.9 -8.8°
Reaches altitude 10° 10:14:36 10° 196° (SSW) 2,894 7.0 -8.1°
Maximum altitude 10:20:47 61° 275° (W) 868 4.0 -6.7°
Drops below altitude 10° 10:25:00 10° 357° (N) 1,976 5.9 -5.7°
Sets 10:26:53 0° 1° (N) 2,761 6.7 -5.3°
